EW9087 Weather Reports


time (UTC)temp
C
wind
direction
speed
KPH
gust
KPH
rain 1hr
cm
rain 24hr
cm
rain mn
cm
humidity
%
barometer
mb
20260505010049 20 183 8.0 16.1 0.00 0.00 0.00 67 972.6
20260505004547 20 205 9.7 16.1 0.00 0.00 0.00 67 972.7
20260505003046 21 202 12.9 24.1 0.00 0.00 0.00 66 972.7
20260505001546 21 208 16.1 27.4 0.00 0.00 0.00 65 972.6
20260505000049 21 198 16.1 27.4 0.00 0.00 0.00 64 972.5
20260504234545 21 196 16.1 33.8 0.00 0.00 0.00 62 972.5
20260504233045 22 188 19.3 33.8 0.00 0.00 0.00 60 972.6
20260504231543 22 184 22.5 38.6 0.00 0.00 0.00 58 972.7
20260504230042 22 196 25.7 35.4 0.00 0.00 0.00 56 972.9
20260504224542 22 223 27.4 43.5 0.00 0.00 0.00 55 973.1
20260504223041 22 225 29.0 49.9 0.00 0.00 0.00 53 973.4
20260504221543 23 240 30.6 64.4 0.00 0.00 0.00 51 973.4
20260504220048 23 204 32.2 51.5 0.00 0.00 0.00 48 973.3
20260504214549 23 227 40.2 56.3 0.00 0.00 0.00 47 973.1
20260504213047 24 215 35.4 49.9 0.00 0.00 0.00 47 973.1
20260504211538 25 209 32.2 53.1 0.00 0.00 0.00 46 972.9
20260504210037 24 221 33.8 48.3 0.00 0.00 0.00 47 972.8
20260504204536 23 236 35.4 49.9 0.00 0.00 0.00 52 972.9
20260504203035 24 202 29.0 49.9 0.00 0.00 0.00 53 972.8
20260504201534 24 215 25.7 46.7 0.00 0.00 0.00 51 973.0
20260504200040 25 208 29.0 43.5 0.00 0.00 0.00 52 973.1
20260504194530 24 210 30.6 43.5 0.00 0.00 0.00 50 973.3
20260504193027 24 200 33.8 54.7 0.00 0.00 0.00 52 973.7
20260504191538 24 209 33.8 45.1 0.00 0.00 0.00 52 973.9
20260504190024 23 217 27.4 41.8 0.00 0.00 0.00 52 973.9
20260504184524 24 227 33.8 43.5 0.00 0.00 0.00 53 973.9
20260504183035 23 215 24.1 43.5 0.00 0.00 0.00 56 974.2
20260504181523 23 202 24.1 40.2 0.00 0.00 0.00 57 974.3
20260504180019 23 202 25.7 38.6 0.00 0.00 0.00 55 974.4
20260504174515 23 205 19.3 38.6 0.00 0.00 0.00 58 974.4
20260504173007 22 229 25.7 35.4 0.00 0.00 0.00 57 974.7
20260504171506 22 213 17.7 35.4 0.00 0.00 0.00 59 974.9
20260504081517 10 190 11.3 19.3 0.00 0.00 0.00 78 977.8
20260504044558 8 184 8.0 12.9 0.00 0.00 0.00 83 979.8
20260504043052 8 180 8.0 14.5 0.00 0.00 0.00 83 979.9
20260504041545 8 175 8.0 11.3 0.00 0.00 0.00 85 980.0
20260504040054 8 169 1.6 4.8 0.00 0.00 0.00 85 980.1
20260504034555 8 169 3.2 9.7 0.00 0.00 0.00 84 980.3
20260504033054 8 174 3.2 11.3 0.00 0.00 0.00 83 980.4
20260504031539 8 165 4.8 9.7 0.00 0.00 0.00 82 980.4
20260504030044 8 168 6.4 11.3 0.00 0.00 0.00 82 980.7
20260504024536 8 155 6.4 12.9 0.00 0.00 0.00 82 980.8
20260504023040 8 133 8.0 12.9 0.00 0.00 0.00 82 980.8
20260504021535 8 150 6.4 12.9 0.00 0.00 0.00 82 980.9
20260504020037 8 138 8.0 14.5 0.00 0.00 0.00 83 980.9
20260504014544 9 158 8.0 16.1 0.00 0.00 0.00 83 980.7
20260504013038 9 144 8.0 14.5 0.00 0.00 0.00 82 980.8
20260504011532 9 151 9.7 19.3 0.00 0.00 0.00 82 980.8